Flag for Japan Weather past 2 weeks in Minamisōma, Japan

Now
82 °F

Sprinkles. Broken clouds.


Feels Like: 91 °F
Forecast: 73 / 89 °F
Wind: 5 mph from Northeast

Location: Sendai Airport

Current Time: Aug 21, 2014 at 11:29:57 AM

Latest Report: Aug 21, 2014 at 11:00 AM


Visibility: N/A

Pressure: 29.89 "Hg

Humidity: 84%

Dew point: 77 °F

Location of MinamisōmaLocation

Historic Weather in Minamisōma — Graph

°F

Minamisōma temperature yesterday

Maximum temperature yesterday: 88 °F (at 3:00 PM)
Minimum temperature yesterday: 75 °F (at 6:00 AM)
Average temperature yesterday: 84 °F

Past Weeks' High & Low Weather Summary

 TemperatureHumidityPressure
High91 °F (Aug 6, 12:00 PM)100% (Aug 8, 6:00 PM)30.01 "Hg (Aug 8, 6:00 PM)
Low68 °F (Aug 10, 5:48 AM)59% (Aug 6, 12:00 PM)29.36 "Hg (Aug 11, 6:00 AM)
Average76 °F87%29.79 "Hg
* Reported Aug 6 10:00 AM — Aug 21 10:00 AM, Minamisōma, Weather by CustomWeather, © 2014

Note: Actual official high and low records may vary slightly from our data, if they occured in-between our weather recording intervals... More about our weather records

Advertising

Minamisōma weather history for previous 24 hours

 ConditionsComfort  
Time TempWeatherWind HumidityBarometerVisibility
10:00 AM
Aug 21
82 °FPartly sunny.3 mph79%29.89 "HgN/A
9:00 AM81 °FSprinkles. Broken clouds.5 mph84%29.89 "HgN/A
8:00 AM82 °FSprinkles. Broken clouds.9 mph74%29.89 "HgN/A
7:00 AM82 °FBroken clouds.2 mph74%29.89 "HgN/A
6:00 AM81 °FPartly sunny.5 mph84%29.86 "HgN/A
9:00 PM
Aug 20
81 °FPassing clouds.7 mph84%29.89 "HgN/A
8:00 PM81 °FPassing clouds.6 mph89%29.89 "HgN/A
7:00 PM81 °FPassing clouds.3 mph89%29.86 "HgN/A
6:00 PM84 °FPartly sunny.5 mph79%29.86 "HgN/A
5:00 PM86 °FScattered clouds.8 mph70%29.83 "HgN/A
4:00 PM86 °FBroken clouds.9 mph70%29.83 "HgN/A
3:00 PM88 °FPassing clouds.10 mph66%29.83 "HgN/A
2:00 PM86 °FScattered clouds.12 mph75%29.83 "HgN/A
1:00 PM86 °FScattered clouds.12 mph75%29.86 "HgN/A
12:00 PM86 °FScattered clouds.9 mph79%29.86 "HgN/A
11:00 AM86 °FScattered clouds.8 mph75%29.89 "HgN/A
Weather by CustomWeather, © 2014

See weather overviewHow to use our weather pages